Location: Internatsional�noye
(51.1248°N, 71.5977°E)
Time: 06:58:42
(UTC+00:00)

Daily predictions for brighter satellites

Satellite Brightness Start Highest point End
(mag) Time Altitude Azimuth Time Altitude Azimuth Time Altitude Azimuth
NOSS 3-4 (A) 4.0 15:24:03 10° NW 15:30:51 72° NE 15:38:28 10° SE
NOSS 3-4 (C) 4.0 15:24:09 10° NW 15:30:57 72° NE 15:38:35 10° SE
Resurs 1-3 4.0 15:29:22 10° S 15:33:44 68° WSW 15:38:07 10° NNW
SJ-6B 4.4 15:30:31 10° SSW 15:34:12 37° W 15:37:58 10° NNW
Sich 1 4.2 15:31:07 10° NNW 15:35:16 44° W 15:39:25 10° SSW
ARIANE 5 R/B 3.7 15:32:12 10° SE 15:36:01 31° ENE 15:39:50 10° N
SJ 16-02 2.3 15:34:38 10° SSE 15:38:26 29° E 15:42:16 10° NE
Cosmos 1777 Rocket 4.1 15:36:11 10° S 15:41:15 55° ESE 15:46:21 10° NNE
Cosmos 2084 3.3 15:37:14 10° SW 15:41:23 79° SE 15:45:40 10° NE
USA 305 3.3 15:37:41 10° WNW 15:41:52 54° SSW 15:46:02 10° SE
NOSS 3-3 (A) 3.9 15:36:08 10° SSW 15:41:56 74° SE 15:48:39 10° NE
NOSS 3-3 (C) 3.9 15:36:15 10° SSW 15:42:03 73° SE 15:48:45 10° NE
ATLAS 2AS CENTAUR R/B 3.2 15:36:45 10° NW 15:44:15 59° NE 15:51:08 10° ESE
Ariane Rocket 3.8 15:41:48 10° S 15:46:43 52° W 15:51:42 10° NNW
Cosmos 1151 Rocket 3.1 15:45:52 10° S 15:50:14 86° W 15:54:40 10° N
USA 245 2.9 15:48:54 11° SE 15:50:49 32° ENE 15:53:01 10° N
Cosmos 1500 3.1 15:47:07 10° N 15:50:53 88° W 15:54:37 10° S
Cosmos 1242 Rocket 3.8 15:47:57 10° SSW 15:51:22 44° WNW 15:54:47 10° N
SPOT 5 3.9 15:47:37 10° SE 15:52:21 36° ENE 15:57:12 10° N
USA 215 4.0 15:46:05 10° ENE 15:52:28 58° N 15:58:51 10° W
Cosmos 2082 Rocket 2.4 15:46:54 10° NNW 15:52:31 66° ENE 15:58:03 10° SE
MetOp-B 4.2 15:50:23 10° SSE 15:55:44 84° ENE 16:01:08 10° NNW
deb Kosmos-1763 4.0 15:52:14 10° NNW 15:55:47 82° WSW 15:59:19 10° SSE
Cosmos 923 Rocket 4.4 15:54:02 10° NNW 15:59:12 52° ENE 16:04:02 12° SE
Cosmos 2315 Rocket 4.1 15:53:14 10° S 15:59:38 87° W 16:06:04 10° N
OBJECT-B 3.7 15:58:05 10° SW 16:00:05 15° W 16:02:06 10° NW
IGS 5A 3.7 15:56:23 10° S 16:00:29 68° WSW 16:04:39 10° NNW
USA 306 3.6 15:57:16 10° WNW 16:01:20 43° SW 16:05:00 12° SE
CREW DRAGON DEMO-1 DEB 4.2 15:59:21 10° W 16:01:28 21° SSW 16:03:15 12° SSE
Landsat 7 4.0 15:57:54 10° S 16:02:39 77° WSW 16:07:27 10° NNW
Iridium 4 Rocket 4.1 16:01:22 10° SSE 16:07:01 53° E 16:12:44 10° NNE
Cosmos 1536 3.9 16:03:37 10° N 16:07:17 32° ENE 16:10:17 13° SE
COSMOS 2406 3.7 16:02:03 10° NW 16:07:37 58° WSW 16:13:10 10° S
ERBS 3.3 16:04:40 10° NW 16:07:51 42° NNE 16:11:02 10° E
Cosmos 1943 Rocket 3.7 16:10:47 12° SE 16:13:31 17° E 16:17:01 10° ENE
ISS -2.1 16:12:19 10° S 16:14:26 16° SE 16:14:28 16° SE
Cosmos 1437 3.6 16:11:45 10° SSW 16:14:30 44° WNW 16:17:14 10° N
Cosmos 158 Rocket 3.8 16:09:45 10° NNW 16:14:41 88° ENE 16:19:04 13° SSE
Cosmos 2278 Rocket 2.2 16:13:49 10° SSW 16:19:28 81° ESE 16:25:10 10° NNE
CZ-2C R/B 3.7 16:18:01 10° NNE 16:22:32 86° ESE 16:27:07 10° SSW
Cosmos 2228 Rocket 3.5 16:20:58 13° SSE 16:24:44 46° E 16:29:02 10° NNE
Resurs 01 Rocket 3.0 16:21:19 10° SSW 16:25:26 36° W 16:29:34 10° NNW
BREEZE-M DEB (TANK) 3.7 16:14:14 10° WSW 16:25:30 88° NNW 16:28:38 10° ENE
Meteor 2-6 Rocket 4.2 16:20:30 10° S 16:25:57 85° E 16:31:35 10° NNE
Cosmos 2369 Rocket 4.1 16:25:10 10° ESE 16:26:39 12° E 16:28:28 10° ENE
USA 307 4.1 16:25:15 10° WNW 16:29:02 31° SW 16:31:48 16° SSE
Cosmos 1271 Rocket 2.7 16:27:47 10° S 16:31:47 75° E 16:35:48 10° NNE
Cosmos 1515 Rocket 3.9 16:28:58 10° SSW 16:33:21 69° WNW 16:37:44 10° N
SPOT 1/Viking Rocket 4.0 16:28:39 10° S 16:33:47 61° WSW 16:38:57 10° NNW
Cosmos 1869 Rocket 3.5 16:32:15 10° N 16:36:36 71° ENE 16:39:44 18° SSE
Meteor 1-27 Rocket 4.0 16:31:24 12° S 16:36:44 55° E 16:42:30 10° NNE
Cosmos 2112 Rocket 4.2 16:32:25 10° NNW 16:37:48 69° ENE 16:41:44 18° SE
EP 1 4.3 16:35:13 10° SSW 16:38:13 62° SE 16:40:50 10° NE
Meteor 2-12 Rocket 4.4 16:32:30 10° N 16:38:37 83° E 16:43:43 15° SSE
USA 308 4.3 16:39:08 10° W 16:42:42 26° SW 16:45:03 16° S
H-2A R/B 4.1 16:43:15 10° NNE 16:47:12 39° E 16:49:24 22° SSE
Cosmos 1833 Rocket 4.2 16:45:14 10° NW 16:50:02 29° WSW 16:54:50 10° SSW
ERS-1 Rocket 3.0 16:49:49 17° S 16:53:42 77° WSW 16:58:46 10° NNW
Spot 2 Rocket 4.1 16:49:38 13° S 16:54:04 53° W 16:59:01 10° NNW
Gbstr 26 Del rocket 4.2 16:47:42 10° WNW 16:55:27 77° SSW 17:00:53 16° ESE
Cosmos 1666 4.2 16:52:33 10° NNW 16:55:54 32° W 16:59:11 10° SSW
Cosmos 1461 4.3 16:54:58 22° SE 16:56:03 24° ESE 16:59:47 10° ENE
Cosmos 1707 Rocket 4.1 16:54:26 23° SSE 16:56:44 42° E 17:00:55 10° NNE
Cosmos 1937 Rocket 4.1 16:54:03 21° SSE 16:56:55 37° ESE 17:01:41 10° NE
Cosmos 1812 4.4 16:55:00 10° SW 16:58:30 32° WNW 17:02:01 10° N
CARTOSAT-1 4.2 16:55:05 15° S 16:58:30 50° W 17:02:44 10° NNW
CZ-4C R/B 4.3 16:53:04 10° WNW 16:59:16 30° WSW 17:06:09 10° S
Meteor 1-11 Rocket 4.2 16:57:27 10° NNW 17:03:21 62° W 17:08:11 15° S
Cosmos 44 3.6 16:58:01 10° NW 17:03:26 69° SW 17:06:41 24° SSE
Cosmos 1680 Rocket 3.7 16:58:42 10° NNW 17:04:01 69° WSW 17:07:32 21° S
Cosmos 1544 3.0 17:05:04 10° NNW 17:08:42 80° W 17:10:28 28° S
Terra 1.9 17:07:02 22° S 17:10:07 76° WSW 17:14:55 10° NNW
Cosmos 1900 4.4 17:07:02 11° SSW 17:11:51 56° ESE 17:16:48 10° NE
Cosmos 2154 Rocket 4.3 17:05:40 10° NNW 17:11:57 68° W 17:16:54 17° S
ARIANE 5 R/B 3.9 17:08:59 13° SSW 17:12:25 34° W 17:16:25 10° NNW
SJ 16-02 2.8 17:12:44 10° SW 17:16:53 39° WNW 17:21:05 10° N
Cosmos 1743 2.7 17:16:26 10° NNW 17:20:18 82° W 17:22:03 31° S
Cosmos 962 Rocket 4.4 17:14:39 10° N 17:20:49 88° ENE 17:24:47 24° S
Cosmos 2297 3.7 17:16:51 14° SSW 17:21:44 68° ESE 17:27:23 10° NE
Cosmos 1733 Rocket 3.0 17:19:14 10° N 17:23:34 73° ENE 17:25:31 32° SSE
Cosmos 1340 Rocket 3.2 17:19:43 10° NNW 17:23:46 60° W 17:25:49 27° S
Nadezhda 1 Rocket 4.2 17:18:25 11° SSW 17:24:32 71° WNW 17:30:45 10° N
SL-24 R/B - RUBIN 2 4.5 17:19:36 10° NW 17:24:53 48° WSW 17:27:20 26° S
BREEZE-M R/B 1.8 17:23:40 10° W 17:26:04 59° S 17:26:13 58° SSE
Okean 1 3.5 17:25:36 34° SSE 17:26:59 52° E 17:30:52 10° NNE
SPOT 5 4.0 17:26:35 16° SSW 17:30:20 41° W 17:35:23 10° NNW
Cosmos 2084 Rocket 3.9 17:26:41 10° NW 17:30:49 50° SW 17:32:29 32° S
USA 215 3.9 17:28:40 10° E 17:35:02 57° N 17:41:25 10° WNW
ATLAS 2AS CENTAUR R/B 3.3 17:28:09 10° NW 17:35:07 47° WSW 17:39:05 23° S
Cosmos 2082 Rocket 3.8 17:31:41 10° NW 17:36:09 25° WSW 17:39:54 13° SSW
Cosmos 1818 3.8 17:31:08 10° NW 17:36:32 59° SW 17:39:11 29° SSE
Cosmos 1898 Rocket 3.6 17:35:55 13° SSW 17:40:44 78° WNW 17:46:07 10° NNE
Cosmos 1908 Rocket 4.2 17:36:54 10° N 17:41:14 45° ENE 17:42:58 30° SE
Spot 4 4.3 17:38:57 28° SE 17:41:16 54° ENE 17:46:01 10° N
ERBS 2.6 17:40:49 10° WNW 17:44:00 45° SW 17:44:09 45° SSW
Cosmos 990 Rocket 4.5 17:39:41 10° SW 17:44:52 61° WNW 17:50:06 10° NNE
Cosmos 372 Rocket 4.1 17:43:20 32° SSE 17:45:27 53° ESE 17:50:26 10° NNE
Cosmos 967 Rocket 4.4 17:41:41 10° SW 17:47:57 86° SE 17:54:17 10° NE
ISS -2.1 17:47:26 10° WSW 17:52:42 22° E 17:54:04 10° E
SL-27 R/B 3.6 17:50:13 10° N 17:53:14 31° ENE 17:54:06 27° E
Cosmos 1238 Rocket 3.8 17:47:21 10° NNW 17:53:25 70° W 17:56:10 29° S
Meteor 1-18 Rocket 4.2 17:52:16 30° S 17:55:07 72° E 18:00:41 10° NNE
Cosmos 2366 rocket 3.9 17:48:55 10° N 17:55:09 90° W 17:58:30 30° S
Cosmos 2181 Rocket 3.9 17:52:06 27° S 17:55:39 81° E 18:01:48 10° NNE
Cosmos 1943 Rocket 2.1 17:52:14 18° SSW 17:56:29 89° SE 18:02:07 10° NNE
Cosmos 1975 2.7 17:56:30 10° N 18:00:30 86° W 18:01:37 46° S
Cosmos 2278 Rocket 4.4 17:59:32 10° W 18:04:14 26° NW 18:08:56 10° NNE
Cosmos 1515 4.3 18:03:36 29° SW 18:05:12 50° WNW 18:08:55 10° N
Cosmos 1607 4.3 18:05:25 31° S 18:08:07 47° ESE 18:14:18 10° NE
RESURS DK-1 2.3 18:04:26 10° NNW 18:08:37 82° ENE 18:09:52 44° SE
Cosmos 2369 Rocket 2.2 18:06:55 31° S 18:09:33 65° ESE 18:15:11 10° NE
Cosmos 1656 Rocket 4.1 18:09:01 34° SSE 18:10:42 44° ESE 18:15:57 10° NE
Cosmos 1862 Rocket 3.8 18:09:55 32° SSW 18:11:47 65° WNW 18:16:06 10° N
Cosmos 1703 Rocket 3.9 18:11:45 40° SE 18:12:50 50° E 18:17:08 10° NNE
Cosmos 1782 Rocket 4.0 18:09:07 10° N 18:13:29 52° ENE 18:14:54 37° SE
Cosmos 2098 4.0 18:14:58 10° N 18:17:58 82° ENE 18:18:01 82° E
Cosmos 1125 Rocket 4.2 18:16:47 32° SE 18:18:04 37° ESE 18:22:50 10° NE
Okean 1-7 3.2 18:17:57 44° SE 18:18:55 55° E 18:23:07 10° NNE
Cosmos 2218 Rocket 4.3 18:15:26 10° NNW 18:21:37 60° W 18:24:58 28° SSW
COBE Rocket 4.2 18:22:59 34° SE 18:25:06 64° ENE 18:30:14 10° N
DNEPR-1 R/B 4.3 18:20:30 10° SW 18:26:11 65° NW 18:30:56 10° NE
Cosmos 1867 3.6 18:30:26 35° SSW 18:32:39 65° SE 18:38:06 10° NE
Cosmos 1461 3.5 18:31:13 17° SW 18:34:49 65° NW 18:39:24 10° NE
Nadezhda 3 Rocket 4.0 18:38:40 35° SSE 18:41:26 69° E 18:47:36 10° NNE
Cosmos 2263 4.2 18:39:45 32° SSW 18:42:32 82° ESE 18:48:22 10° NNE
Cosmos 2344 4.3 18:38:34 10° NW 18:47:34 84° SW 18:57:58 17° SE
Terra 4.3 18:47:15 10° WSW 18:48:42 11° W 18:50:10 10° WNW
Meteor 2-4 Rocket 3.9 18:49:22 30° SSW 18:52:14 65° WNW 18:57:47 10° N
ALOS 2 2.8 18:51:21 45° SSW 18:52:25 61° WSW 18:56:47 10° NNW
COSMOS 2487 3.2 18:50:26 10° N 18:53:42 41° ENE 18:54:17 37° E
Cosmos 1048 Rocket 4.4 18:48:36 10° NNW 18:53:44 49° WSW 18:55:20 37° SSW
Cosmos 1805 3.6 18:50:53 10° N 18:54:45 57° ENE 18:55:30 47° ESE
Cosmos 44 Rocket 3.3 18:49:49 10° NW 18:55:05 79° SW 18:57:00 40° SSE
ATLAS CENTAUR R/B 0.9 18:55:09 68° SSE 18:55:19 70° SE 18:59:08 10° NE
Cosmos 2227 Rocket 4.1 18:50:56 10° NNW 18:55:40 26° NE 19:00:23 10° E
Cosmos 2297 Rocket 3.7 18:53:24 10° NNW 18:58:29 32° NE 19:03:32 10° ESE
Nimbus 7 Rocket 4.4 18:53:25 10° NNE 18:59:19 72° ESE 19:01:48 36° S
MTI 3.8 19:02:19 10° N 19:05:10 69° NW 19:05:10 69° NW
NOSS 2-1 (E) 4.1 19:01:13 10° NW 19:06:00 85° SW 19:09:41 26° SE
SAR-Lupe-2 3.6 19:04:22 10° N 19:07:57 71° WNW 19:08:26 60° SW
Cosmos 1269 Rocket 4.1 19:02:53 10° NNW 19:08:13 77° ENE 19:10:31 35° SE
Cosmos 1766 3.6 19:06:00 10° N 19:09:54 57° ENE 19:10:45 46° SE
Meteor 1-13 Rocket 4.1 19:09:23 38° SSW 19:11:37 84° W 19:17:11 10° NNE
Thor Agena Rocket 3.6 19:10:11 10° NNE 19:15:28 75° ESE 19:17:23 40° S
Meteor 1-23 Rocket 4.4 19:13:27 36° SSE 19:15:46 65° E 19:21:33 10° NNE
Cosmos 1300 Rocket 3.5 19:12:01 10° NNW 19:16:26 85° W 19:17:30 52° S
Sich 1 Rocket 3.6 19:11:55 10° NNW 19:16:29 76° W 19:17:39 49° S
Aureole 2 4.5 19:14:26 10° NNW 19:17:25 59° ENE 19:17:29 59° ENE
USA 215 3.2 19:11:19 10° ESE 19:17:53 87° SSW 19:24:29 10° WNW
Cosmos 2298 Rocket 4.3 19:15:15 29° SW 19:17:54 62° WNW 19:23:11 10° NNE
SeaSat 1 3.2 19:13:32 10° NE 19:18:08 37° ESE 19:19:14 33° SE
Cosmos 724 4.4 19:16:36 36° SSW 19:19:11 66° ESE 19:25:23 10° NE
Cosmos 1378 3.5 19:21:19 46° WSW 19:21:55 52° WNW 19:25:35 10° N
Cosmos 1726 3.8 19:19:41 10° NNE 19:22:52 26° ENE 19:24:14 20° ESE
USA 281 4.2 19:18:12 10° ESE 19:24:22 45° NE 19:30:32 10° NNW
Okean 3 3.7 19:23:47 44° SW 19:24:53 60° WNW 19:29:05 10° N
PSLV R/B 3.8 19:22:13 10° NNE 19:26:32 57° E 19:27:30 45° SSE
ISS -3.7 19:25:21 20° W 19:27:32 79° N 19:30:56 10° E
SL-27 R/B 4.2 19:25:35 10° NW 19:27:36 20° W 19:27:36 20° W
Cosmos 1470 4.0 19:26:29 10° N 19:30:08 36° ENE 19:31:33 27° ESE
Okean 2 Rocket 3.0 19:27:18 10° NNW 19:31:43 76° W 19:32:47 50° S
Cosmos 2151 Rocket 3.5 19:28:40 10° N 19:33:13 89° E 19:34:30 47° S
Cosmos 1934 Rocket 4.0 19:29:24 10° NNW 19:35:29 65° W 19:38:05 35° SSW
Helios 1A 3.7 19:35:44 28° SE 19:37:31 46° ENE 19:41:30 10° N
Cosmos 1943 Rocket 4.2 19:36:29 10° W 19:40:59 24° NW 19:45:29 10° NNE
Lacrosse 5 2.1 19:40:38 42° S 19:41:46 51° SE 19:46:43 10° ENE
Cosmos 2219 3.9 19:38:38 10° NNW 19:44:13 52° NE 19:49:42 11° SE
COSMOS 2455 2.9 19:38:35 10° NW 19:44:39 83° NE 19:49:02 20° SE
Cosmos 1842 3.5 19:45:26 48° SE 19:46:10 58° E 19:49:59 10° NNE
Cosmos 1400 Rocket 2.8 19:42:21 10° N 19:46:29 82° ENE 19:47:30 50° SSE
Meteor 2-10 4.1 19:42:55 10° N 19:48:20 76° ENE 19:50:45 33° SSE
Cosmos 1758 4.5 19:45:06 10° N 19:48:58 39° ENE 19:50:49 24° SE
Cosmos 1315 Rocket 4.1 19:49:55 10° N 19:53:37 35° ENE 19:55:45 20° ESE
Meteor 1-22 Rocket 4.4 19:47:36 10° NNW 19:53:37 77° W 19:56:30 33° S
Cosmos 2369 Rocket 3.8 19:49:06 10° WSW 19:54:02 30° NW 19:59:02 10° NNE
MOZ.5/SAFIR/RUBIN 5/SL-8 4.5 19:51:38 23° SE 19:54:17 49° ENE 19:58:47 10° N
Cosmos 1125 Rocket 4.5 19:57:01 20° WSW 20:00:07 40° NW 20:05:03 10° NNE
CZ-2D R/B 3.7 19:56:04 10° NE 20:00:36 27° E 20:03:41 16° SE
YAOGAN 11 4.0 20:00:02 40° SSE 20:01:33 86° ENE 20:05:52 10° NNW
Resurs 1-4 Rocket 3.5 20:00:22 10° NE 20:04:56 29° E 20:07:54 17° SE
Cosmos 1733 4.3 20:02:12 10° NNW 20:05:32 29° W 20:05:53 29° WSW
Okean 2 3.5 20:06:24 44° SSE 20:07:37 70° E 20:11:47 10° NNE
Cosmos 1378 Rocket 3.4 20:07:50 45° S 20:09:09 88° E 20:13:30 10° N
EO 1 Del DPAF 3.4 20:05:32 10° N 20:09:13 58° WNW 20:10:03 45° WSW
Cosmos 1727 Rocket 4.1 20:07:10 30° S 20:10:31 77° E 20:16:53 10° NNE
SL-24 R/B 4.1 20:11:31 41° SSW 20:12:54 65° WSW 20:17:08 10° NNW
Cosmos 1707 3.2 20:14:35 38° SSE 20:15:41 52° E 20:19:26 10° NNE
USA 276 3.1 20:19:31 34° ESE 20:19:31 34° ESE 20:21:43 10° E
Cosmos 1697 Rocket 4.2 20:16:12 17° SE 20:19:09 25° ESE 20:23:41 10° NE
SL-16 R/B 2.9 20:16:12 13° SE 20:21:48 63° ENE 20:27:59 10° NNW
COSMOS 2487 4.5 20:26:03 10° WNW 20:27:34 15° W 20:27:34 15° W
Okean 1 Rocket 3.4 20:26:22 10° NNW 20:30:38 50° W 20:31:57 36° SW
Cosmos 1980 Rocket 4.2 20:28:35 10° SE 20:32:16 18° E 20:35:58 10° ENE
ATLAS CENTAUR R/B 3.3 20:31:31 10° W 20:34:35 23° NNW 20:37:45 10° NNE
Helios 1B rocket 3.4 20:32:13 10° NNE 20:36:08 39° E 20:38:09 23° SSE
Cosmos 1725 Rocket 4.5 20:30:08 10° N 20:36:20 58° ENE 20:42:08 12° SSE
Cosmos 1674 Rocket 4.3 20:37:06 29° WSW 20:38:50 42° WNW 20:43:07 10° N
Cosmos 1459 Rocket 3.9 20:33:04 10° N 20:39:22 86° W 20:43:30 22° S
Cosmos 2227 Rocket 2.1 20:34:41 10° NNW 20:40:22 79° WSW 20:44:55 16° SSE
Cosmos 2297 Rocket 2.2 20:37:19 10° NW 20:42:54 61° WSW 20:46:26 23° S
TSX-5 3.4 20:40:43 10° NW 20:44:05 75° WSW 20:46:05 27° SSE
Meteor 2-11 Rocket 4.5 20:40:27 10° N 20:46:40 87° E 20:51:21 18° S
Cosmos 1953 2.4 20:43:22 10° N 20:47:22 71° E 20:49:39 24° SSE
In-Cosmos 22 4.2 20:46:01 25° S 20:49:20 76° E 20:54:48 10° NNE
Cosmos 2016 Rocket 4.0 20:43:50 10° N 20:50:08 81° E 20:55:13 16° SSE
ADEOS Rocket 4.3 20:45:27 10° SE 20:52:47 54° ENE 21:00:19 10° N
Cosmos 614 Rocket 3.9 20:47:54 10° NNW 20:52:58 67° WSW 20:56:20 21° S
Cosmos 2251 Rocket 3.7 20:48:51 10° NNW 20:53:57 52° WSW 20:56:44 25° S
Lacrosse 4 Rocket 2.9 20:52:58 19° SSE 20:55:11 29° ESE 20:59:01 10° NE
SeaSat 1 3.2 20:51:01 10° NNE 20:55:43 45° NW 20:59:00 19° WSW
Cosmos 1140 Rocket 3.8 20:50:55 10° NNW 20:56:09 68° ENE 21:01:21 10° SSE
Cosmos 2173 Rocket 4.0 20:50:12 10° NNW 20:56:19 66° W 21:00:25 22° S
Cosmos 2082 3.8 20:50:42 10° NNW 20:56:26 79° ENE 21:02:09 10° SSE
Meteor 1-21 4.5 20:53:19 26° SSW 20:56:38 62° WNW 21:02:23 10° N
CZ-4 R/B 4.2 20:52:16 10° N 20:57:01 54° WNW 20:59:30 26° SW
Cosmos 1726 3.2 20:54:48 10° NNW 20:58:00 28° W 20:58:40 26° WSW
Cosmos 1544 Rocket 3.8 20:53:36 10° N 20:58:00 68° ENE 21:01:26 16° SSE
MINOTAUR 4 R/B 4.2 20:58:00 22° SSE 21:00:14 72° ENE 21:03:49 10° N
Cosmos 371 Rocket 3.3 20:58:10 28° SSW 21:00:48 83° ESE 21:05:43 10° NNE
Cosmos 1656 3.6 20:58:02 26° SSW 21:01:13 88° ESE 21:06:48 10° NNE
USA 215 3.8 20:56:58 16° S 21:01:26 34° SW 21:07:19 10° WNW
Cosmos 2061 Rocket 4.0 20:56:17 10° N 21:02:39 89° WSW 21:08:07 15° S
Timation 2 Rocket 4.0 20:57:13 10° NW 21:03:00 53° WSW 21:07:27 17° S
ISS -3.9 21:01:00 10° W 21:04:22 66° SSW 21:07:44 10° ESE
BREEZE-M DEB (TANK) 4.4 21:05:25 11° SSE 21:05:25 11° SSE 21:05:55 10° SE
Cosmos 1674 2.7 21:03:43 29° S 21:05:35 78° E 21:09:25 10° NNE
Cosmos 1470 4.2 21:02:52 10° NW 21:05:59 23° W 21:06:52 21° WSW
Cosmos 332 Rocket 4.1 21:03:11 24° S 21:06:04 61° ESE 21:10:53 10° NNE
Cosmos 1455 Rocket 3.1 21:03:41 10° NNW 21:08:00 63° W 21:10:23 25° S
USA 281 3.4 21:04:03 18° S 21:08:49 51° WSW 21:15:13 10° NW
IDEFIX/ARIANE 42P 4.3 21:05:12 10° NE 21:09:36 26° E 21:13:59 10° SSE
Helios 1A 4.4 21:12:20 20° WSW 21:13:17 21° W 21:16:30 10° NW
APEX 3.8 21:12:57 10° NW 21:17:18 65° WSW 21:22:43 10° SSE
AQUA 3.9 21:14:07 10° NNE 21:18:54 73° ESE 21:22:19 19° S
Cosmos 1626 2.4 21:18:33 21° S 21:20:51 63° E 21:24:31 10° NNE
Cosmos 1536 Rocket 4.4 21:17:24 13° SSE 21:21:04 47° E 21:25:21 10° NNE
SL-14 R/B 4.2 21:18:13 14° SSE 21:21:17 44° E 21:25:05 10° NNE
Cosmos 1190 Rocket 4.0 21:18:17 10° NNW 21:23:34 87° WSW 21:28:48 10° SSE
Lacrosse 5 2.4 21:19:48 10° W 21:24:47 59° NNW 21:29:50 10° ENE
GP-B 3.6 21:21:35 10° N 21:26:01 60° E 21:30:14 11° SSE
Cosmos 2219 4.0 21:23:08 10° NW 21:28:11 33° WSW 21:31:33 18° SSW
Cosmos 1802 Rocket 4.3 21:23:39 10° NNW 21:29:31 48° W 21:33:54 17° SSW
ADEOS II 2.4 21:24:35 10° NNE 21:29:51 66° ESE 21:34:23 14° S
COSMOS 2455 4.1 21:25:25 10° WNW 21:29:56 22° WSW 21:32:07 18° SW
Cosmos 1315 Rocket 4.1 21:26:44 10° NW 21:30:01 25° W 21:31:26 20° WSW
Cosmos 2263 Rocket 2.8 21:28:53 10° NNW 21:34:29 59° NE 21:40:05 10° SE
Cosmos 1300 3.0 21:30:49 10° N 21:34:38 68° ENE 21:38:26 10° SSE
Cosmos 2123 Rocket 4.0 21:31:25 17° SSW 21:36:14 70° WNW 21:42:28 10° N
KORONAS-FOTON 4.3 21:35:36 22° SW 21:37:52 47° WNW 21:41:41 10° N
CZ-2D R/B 2.4 21:35:41 10° N 21:41:00 56° WNW 21:45:01 17° SW
NPP 3.8 21:36:28 10° N 21:41:49 65° WNW 21:46:03 16° SSW
Resurs 1-4 Rocket 2.5 21:39:54 10° N 21:44:59 50° WNW 21:48:59 16° SW
Cosmos 407 Rocket 3.8 21:40:00 10° NNW 21:45:08 48° WSW 21:50:14 10° S
Meteor 1-24 Rocket 4.4 21:39:58 10° S 21:45:17 50° E 21:50:28 10° NNE
Cosmos 1975 Rocket 4.0 21:42:50 18° SW 21:45:29 34° WNW 21:49:28 10° N
Cosmos 676 Rocket 4.0 21:42:17 10° NNW 21:47:35 89° WSW 21:52:53 10° SSE
CBERS-1 4.2 21:48:58 10° NNE 21:54:06 71° ESE 21:59:10 10° S
USA 276 2.0 21:51:46 11° W 21:54:44 74° S 21:57:55 10° E
DELTA 2 DEB (DPAF) 4.4 21:52:44 10° S 21:57:03 52° W 22:01:26 10° NNW
Iridium 2 3.6 21:55:42 13° S 21:59:07 81° W 22:02:57 10° N
Cosmos 1624 Rocket 4.1 21:54:56 13° SSW 21:59:40 85° ESE 22:05:03 10° NNE
Spot 1 4.4 21:55:27 10° SSE 22:00:13 80° WSW 22:05:17 10° NNW
Cosmos 1697 Rocket 2.9 21:57:56 14° SW 22:02:41 65° WNW 22:08:18 10° NNE
Cosmos 304 Rocket 4.2 21:59:43 15° SW 22:03:36 53° WNW 22:08:19 10° NNE
Cosmos 2360 4.3 22:00:07 14° SW 22:05:06 73° WNW 22:10:52 10° NNE
SL-16 R/B 3.5 22:01:17 13° SSW 22:05:50 29° W 22:11:11 10° NW
Cosmos 1340 2.8 22:02:24 10° S 22:06:07 72° E 22:09:53 10° NNE
Cosmos 1025 Rocket 3.8 22:03:55 14° SW 22:07:15 38° WNW 22:11:22 10° N
Meteor 2-5 Rocket 3.8 22:01:43 10° S 22:07:25 89° E 22:13:03 10° NNE
Aureole 2 Rocket 1.6 22:05:54 10° NNW 22:08:33 69° WSW 22:11:13 10° SSE
Helios 1B rocket 3.8 22:07:46 10° N 22:11:13 26° WNW 22:14:27 11° WSW
Meteor 1-28 Rocket 3.6 22:08:12 10° S 22:11:44 42° W 22:15:19 10° NNW
ARGOS Delta rocket 4.4 22:07:45 10° N 22:12:07 42° WNW 22:16:25 11° SW
Cosmos 1954 Rocket 4.1 22:08:39 10° NNW 22:13:48 56° WSW 22:18:58 10° S
ATLAS CENTAUR R/B 4.1 22:13:11 10° NNW 22:14:49 12° N 22:16:28 10° NNE
Cosmos 1980 Rocket 2.2 22:10:05 11° SSW 22:15:31 88° WNW 22:21:14 10° NNE
Meteor 1-29 4.1 22:14:42 10° N 22:17:41 29° WNW 22:20:24 12° SW
Cosmos 2227 4.2 22:12:18 10° NNW 22:18:00 82° WSW 22:23:38 10° SSE
CZ-2C R/B 4.4 22:14:33 10° NNE 22:19:01 29° E 22:23:30 10° SSE
Cosmos 1452 Rocket 4.4 22:14:06 10° S 22:19:08 47° ESE 22:24:12 10° NE
Cosmos 2056 Rocket 3.6 22:16:38 11° SW 22:21:32 68° WNW 22:26:41 10° NNE
Cosmos 2084 3.7 22:18:33 10° NW 22:22:59 82° NE 22:27:31 10° SE
Cosmos 1953 4.4 22:21:27 10° WNW 22:23:10 13° W 22:24:53 10° WSW
Cosmos 2227 Rocket 3.9 22:20:30 10° WNW 22:23:30 15° W 22:26:30 10° SW
Cosmos 1464 Rocket 4.1 22:18:14 10° N 22:24:26 87° E 22:30:40 10° S
Cosmos 2297 Rocket 4.1 22:24:38 10° W 22:25:46 11° W 22:26:54 10° WSW
CZ-3B R/B 3.3 22:18:00 10° WSW 22:31:28 71° NNW 22:35:04 10° ENE
Aureole 1 Rocket 3.1 22:29:47 10° NNW 22:33:00 61° ENE 22:36:55 10° SE
IRS-1C 4.2 22:27:50 10° NNE 22:33:14 88° ESE 22:38:35 10° SSW
Lacrosse 4 Rocket 2.2 22:29:26 10° WSW 22:33:43 46° NW 22:37:59 10° NNE
Cosmos 1371 Rocket 4.5 22:29:27 10° SW 22:34:32 50° WNW 22:39:36 10° NNE
Cosmos 2034 Rocket 4.3 22:28:38 10° N 22:35:02 77° E 22:41:21 10° SSE
Cosmos 405 3.6 22:32:54 10° NNW 22:36:11 37° W 22:39:26 10° SSW
SL-08 R/B 3.3 22:32:56 10° S 22:37:36 71° WSW 22:42:14 10° NNW
Cosmos 2369 4.2 22:32:27 10° SW 22:38:01 50° NW 22:43:37 10° NNE
ADEOS Rocket 4.0 22:31:13 10° SSW 22:38:22 44° W 22:45:47 10° NNW
Cosmos 1850 Rocket 4.1 22:33:02 10° NNW 22:38:26 84° WSW 22:43:46 10° SSE
Cosmos 2278 3.9 22:33:18 10° SW 22:38:59 71° WNW 22:44:44 10° NNE
IRS-1D 4.2 22:34:16 10° N 22:39:20 46° WNW 22:44:24 10° SW
ISS -2.3 22:38:17 10° W 22:40:46 19° SW 22:43:14 10° S
Cosmos 2058 Rocket 3.4 22:36:30 10° N 22:41:02 74° E 22:45:32 10° SSE
Cosmos 2228 3.3 22:37:50 10° NNW 22:41:57 47° W 22:46:05 10° SSW
Cosmos 1726 Rocket 3.6 22:37:56 10° NNW 22:42:18 70° W 22:46:41 10° S
Cosmos 1606 Rocket 3.7 22:38:17 10° NNW 22:42:36 56° W 22:46:56 10° S
COSMOS 2441 4.5 22:40:23 10° NNE 22:45:20 86° WNW 22:50:15 10° SSW
